EW3649 Weather Reports


time (UTC)temp
C
wind
direction
speed
KPH
gust
KPH
rain 1hr
cm
rain 24hr
cm
rain mn
cm
humidity
%
barometer
mb
20260901030505 20 0 0.0 0.0 0.00 0.00 0.00 66 1007.8
20260901030006 20 0 0.0 0.0 0.00 0.00 0.00 66 1007.8
20260901025505 20 0 0.0 0.0 0.00 0.00 0.00 65 1007.8
20260901025006 20 0 0.0 0.0 0.00 0.00 0.00 65 1007.8
20260901024505 20 0 0.0 0.0 0.00 0.00 0.00 64 1007.8
20260901024006 20 0 0.0 0.0 0.00 0.00 0.00 64 1007.9
20260901023505 21 0 0.0 0.0 0.00 0.00 0.00 63 1007.9
20260901023005 21 0 0.0 0.0 0.00 0.00 0.00 63 1007.9
20260901022505 21 0 0.0 0.0 0.00 0.00 0.00 62 1008.0
20260901021505 21 0 0.0 0.0 0.00 0.00 0.00 61 1008.0
20260901021005 21 0 0.0 0.0 0.00 0.00 0.00 61 1008.0
20260901020505 21 0 0.0 0.0 0.00 0.00 0.00 60 1007.9
20260901020005 21 0 0.0 0.0 0.00 0.00 0.00 60 1007.9
20260901015504 22 0 0.0 0.0 0.00 0.00 0.00 60 1007.9
20260901015006 22 0 0.0 0.0 0.00 0.00 0.00 59 1007.9
20260901014506 22 0 0.0 0.0 0.00 0.00 0.00 59 1007.9
20260901013505 22 0 0.0 0.0 0.00 0.00 0.00 58 1007.9
20260901013005 22 275 0.0 3.2 0.00 0.00 0.00 57 1007.9
20260901012504 23 275 0.0 3.2 0.00 0.00 0.00 57 1007.9
20260901012005 23 275 0.0 6.4 0.00 0.00 0.00 56 1007.9
20260901011005 23 0 0.0 0.0 0.00 0.00 0.00 55 1007.9
20260901010505 23 0 0.0 0.0 0.00 0.00 0.00 55 1007.9
20260901010006 23 275 0.0 1.6 0.00 0.00 0.00 54 1007.9
20260901005005 23 275 0.0 6.4 0.00 0.00 0.00 54 1007.9
20260901004504 24 275 0.0 11.3 0.00 0.00 0.00 53 1007.8
20260901004005 24 275 0.0 11.3 0.00 0.00 0.00 53 1007.9
20260901003505 24 275 0.0 1.6 0.00 0.00 0.00 52 1007.9
20260901003005 24 275 0.0 1.6 0.00 0.00 0.00 52 1007.9
20260901002505 24 0 0.0 0.0 0.00 0.00 0.00 52 1008.0
20260901002005 24 0 0.0 0.0 0.00 0.00 0.00 52 1008.0
20260901001504 25 0 0.0 0.0 0.00 0.00 0.00 51 1008.1
20260901001005 25 0 0.0 0.0 0.00 0.00 0.00 51 1008.1
20260901000505 25 274 0.0 3.2 0.00 0.00 0.00 50 1008.1
20260831235504 25 274 0.0 4.8 0.00 0.00 0.00 50 1008.2
20260831235005 25 275 0.0 9.7 0.00 0.00 0.00 50 1008.2
20260831234504 25 275 0.0 9.7 0.00 0.00 0.00 50 1008.2
20260831233505 25 274 0.0 6.4 0.00 0.00 0.00 50 1008.3
20260831233005 25 274 0.0 6.4 0.00 0.00 0.00 50 1008.4
20260831232504 25 274 0.0 6.4 0.00 0.00 0.00 50 1008.4
20260831232005 25 274 0.0 12.9 0.00 0.00 0.00 52 1008.5
20260831230505 25 273 0.0 14.5 0.00 0.00 0.00 51 1008.7
20260831230005 25 273 0.0 14.5 0.00 0.00 0.00 50 1008.8
20260831225505 25 273 0.0 9.7 0.00 0.00 0.00 49 1008.8
20260831225005 25 272 0.0 9.7 0.00 0.00 0.00 49 1008.8
20260831224505 25 271 0.0 4.8 0.00 0.00 0.00 50 1008.8
20260831224005 25 271 0.0 4.8 0.00 0.00 0.00 50 1008.9
20260831223505 25 270 0.0 11.3 0.00 0.00 0.00 50 1009.0
20260831223005 25 270 0.0 11.3 0.00 0.00 0.00 50 1009.0
20260831222504 25 269 0.0 4.8 0.00 0.00 0.00 51 1009.0
20260831221505 25 268 0.0 9.7 0.00 0.00 0.00 51 1009.2
20260831220505 25 266 0.0 12.9 0.00 0.00 0.00 52 1009.3
20260831220006 25 266 0.0 12.9 0.00 0.00 0.00 51 1009.4
20260831215505 25 266 0.0 6.4 0.00 0.00 0.00 52 1009.4
20260831215006 25 266 0.0 6.4 0.00 0.00 0.00 52 1009.4
20260831214504 25 266 0.0 6.4 0.00 0.00 0.00 52 1009.4
20260831214004 25 266 0.0 4.8 0.00 0.00 0.00 52 1009.5
20260831213505 25 0 0.0 0.0 0.00 0.00 0.00 53 1009.6
20260831212504 24 266 0.0 12.9 0.00 0.00 0.00 53 1009.7
20260831212004 24 266 0.0 12.9 0.00 0.00 0.00 53 1009.8
20260831211505 24 266 0.0 9.7 0.00 0.00 0.00 53 1009.8
20260831211004 24 265 0.0 14.5 0.00 0.00 0.00 53 1009.8
20260831210504 24 265 0.0 14.5 0.00 0.00 0.00 53 1009.8
20260831210005 24 262 0.0 3.2 0.00 0.00 0.00 54 1009.9
20260831205005 24 261 0.0 12.9 0.00 0.00 0.00 55 1010.0
20260831204005 24 260 0.0 6.4 0.00 0.00 0.00 55 1010.1
20260831203505 23 260 0.0 11.3 0.00 0.00 0.00 54 1010.2
20260831203004 24 259 0.0 11.3 0.00 0.00 0.00 54 1010.3
20260831202504 24 257 0.0 1.6 0.00 0.00 0.00 55 1010.3
20260831202005 23 257 0.0 1.6 0.00 0.00 0.00 56 1010.3
20260831201505 23 0 0.0 0.0 0.00 0.00 0.00 58 1010.5
20260831201006 23 257 0.0 4.8 0.00 0.00 0.00 56 1010.6
20260831200505 23 257 0.0 11.3 0.00 0.00 0.00 56 1010.6
20260831200006 22 257 0.0 11.3 0.00 0.00 0.00 56 1010.7
20260831195504 22 257 0.0 1.6 0.00 0.00 0.00 58 1010.7
20260831194504 22 256 0.0 6.4 0.00 0.00 0.00 58 1011.0
20260831194005 22 256 0.0 6.4 0.00 0.00 0.00 59 1011.0
20260831193504 22 255 0.0 6.4 0.00 0.00 0.00 58 1011.1
20260831193005 22 254 0.0 8.0 0.00 0.00 0.00 58 1011.1
20260831192505 22 252 0.0 8.0 0.00 0.00 0.00 58 1011.1
20260831192004 22 251 0.0 1.6 0.00 0.00 0.00 60 1011.3
20260831191504 22 0 0.0 0.0 0.00 0.00 0.00 60 1011.5
20260831191005 21 251 0.0 1.6 0.00 0.00 0.00 60 1011.5
20260831190504 21 251 0.0 1.6 0.00 0.00 0.00 59 1011.6
20260831190004 21 251 0.0 1.6 0.00 0.00 0.00 60 1011.6
20260831185005 21 251 0.0 6.4 0.00 0.00 0.00 62 1011.8
20260831184504 21 251 0.0 3.2 0.00 0.00 0.00 61 1011.9
20260831184005 21 251 0.0 3.2 0.00 0.00 0.00 61 1011.8
20260831183504 21 0 0.0 0.0 0.00 0.00 0.00 61 1011.8
20260831183005 21 250 0.0 1.6 0.00 0.00 0.00 61 1011.9
20260831182504 21 250 0.0 1.6 0.00 0.00 0.00 62 1012.0
20260831182005 21 0 0.0 0.0 0.00 0.00 0.00 64 1012.1
20260831181005 20 0 0.0 0.0 0.00 0.00 0.00 65 1012.2
20260831180504 20 0 0.0 0.0 0.00 0.00 0.00 65 1012.3
20260831180005 20 0 0.0 0.0 0.00 0.00 0.00 65 1012.3
20260831175505 20 0 0.0 0.0 0.00 0.00 0.00 66 1012.3
20260831175004 20 0 0.0 0.0 0.00 0.00 0.00 67 1012.4
20260831174504 19 0 0.0 0.0 0.00 0.00 0.00 67 1012.4
20260831174006 19 0 0.0 0.0 0.00 0.00 0.00 67 1012.4
20260831173505 19 0 0.0 0.0 0.00 0.00 0.00 67 1012.5
20260831173005 19 0 0.0 0.0 0.00 0.00 0.00 67 1012.5
20260831172505 19 0 0.0 0.0 0.00 0.00 0.00 67 1012.6
20260831170505 18 0 0.0 0.0 0.00 0.00 0.00 69 1012.8
20260831170006 18 0 0.0 0.0 0.00 0.00 0.00 69 1012.8
20260831165505 18 0 0.0 0.0 0.00 0.00 0.00 70 1012.8
20260831165005 18 0 0.0 0.0 0.00 0.00 0.00 70 1012.9
20260831164504 18 0 0.0 0.0 0.00 0.00 0.00 70 1013.0
20260831164005 17 0 0.0 0.0 0.00 0.00 0.00 71 1013.0
20260831163504 17 0 0.0 0.0 0.00 0.00 0.00 73 1013.1
20260831163005 17 0 0.0 0.0 0.00 0.00 0.00 72 1013.1
20260831161505 16 0 0.0 0.0 0.00 0.00 0.00 76 1013.3
20260831161005 16 0 0.0 0.0 0.00 0.00 0.00 77 1013.4
20260831155504 16 0 0.0 0.0 0.00 0.00 0.00 77 1013.4
20260831155008 15 0 0.0 0.0 0.00 0.00 0.00 80 1013.5
20260831154505 15 0 0.0 0.0 0.00 0.00 0.00 80 1013.5
20260831153505 14 0 0.0 0.0 0.00 0.00 0.00 84 1013.6
20260831153004 13 0 0.0 0.0 0.00 0.00 0.00 86 1013.6
20260831151504 12 0 0.0 0.0 0.00 0.00 0.00 91 1013.7
20260831151005 12 0 0.0 0.0 0.00 0.00 0.00 91 1013.8
20260831150504 12 0 0.0 0.0 0.00 0.00 0.00 92 1013.7
20260831150005 12 0 0.0 0.0 0.00 0.00 0.00 92 1013.7
20260831145505 12 0 0.0 0.0 0.00 0.00 0.00 93 1013.7
20260831145006 12 0 0.0 0.0 0.00 0.00 0.00 93 1013.6
20260831144504 11 0 0.0 0.0 0.00 0.00 0.00 93 1013.5
20260831144005 11 0 0.0 0.0 0.00 0.00 0.00 93 1013.6
20260831143504 11 0 0.0 0.0 0.00 0.00 0.00 93 1013.7
20260831142504 10 0 0.0 0.0 0.00 0.00 0.00 93 1013.6
20260831142005 10 0 0.0 0.0 0.00 0.00 0.00 93 1013.7
20260831141505 10 0 0.0 0.0 0.00 0.00 0.00 92 1013.6
20260831141004 10 0 0.0 0.0 0.00 0.00 0.00 92 1013.8
20260831140504 10 0 0.0 0.0 0.00 0.00 0.00 91 1013.7
20260831140005 10 0 0.0 0.0 0.00 0.00 0.00 91 1013.7
20260831134504 10 0 0.0 0.0 0.00 0.00 0.00 91 1013.6
20260831134006 10 0 0.0 0.0 0.00 0.00 0.00 91 1013.5
20260831133504 10 0 0.0 0.0 0.00 0.00 0.00 92 1013.5
20260831133004 10 0 0.0 0.0 0.00 0.00 0.00 91 1013.5
20260831132504 10 0 0.0 0.0 0.00 0.00 0.00 92 1013.5
20260831131505 10 0 0.0 0.0 0.00 0.00 0.00 92 1013.6
20260831131006 10 0 0.0 0.0 0.00 0.00 0.00 92 1013.6
20260831130005 10 0 0.0 0.0 0.00 0.00 0.00 91 1013.7
20260831125504 10 0 0.0 0.0 0.00 0.00 0.00 90 1013.7
20260831125005 10 0 0.0 0.0 0.00 0.00 0.00 90 1013.7
20260831124505 10 0 0.0 0.0 0.00 0.00 0.00 90 1013.8
20260831124005 10 0 0.0 0.0 0.00 0.00 0.00 91 1013.8
20260831123504 10 0 0.0 0.0 0.00 0.00 0.00 91 1013.7
20260831122503 10 0 0.0 0.0 0.00 0.00 0.00 91 1013.8
20260831122005 10 0 0.0 0.0 0.00 0.00 0.00 91 1013.9
20260831121504 10 0 0.0 0.0 0.00 0.00 0.00 91 1013.9
20260831121005 10 0 0.0 0.0 0.00 0.00 0.00 91 1013.9
20260831120004 10 0 0.0 0.0 0.00 0.00 0.00 90 1014.0
20260831115006 10 0 0.0 0.0 0.00 0.00 0.00 89 1014.0
20260831114504 10 0 0.0 0.0 0.00 0.00 0.00 89 1014.1
20260831114005 11 0 0.0 0.0 0.00 0.00 0.00 89 1014.1
20260831113504 11 0 0.0 0.0 0.00 0.00 0.00 90 1014.2
20260831113005 11 0 0.0 0.0 0.00 0.00 0.00 90 1014.2
20260831112504 11 0 0.0 0.0 0.00 0.00 0.00 90 1014.2
20260831112005 11 0 0.0 0.0 0.00 0.00 0.00 90 1014.3
20260831111504 11 0 0.0 0.0 0.00 0.00 0.00 90 1014.3
20260831111005 11 0 0.0 0.0 0.00 0.00 0.00 89 1014.4
20260831110504 11 0 0.0 0.0 0.00 0.00 0.00 89 1014.4
20260831110004 11 0 0.0 0.0 0.00 0.00 0.00 89 1014.4
20260831105503 11 0 0.0 0.0 0.00 0.00 0.00 89 1014.5
20260831105004 11 0 0.0 0.0 0.00 0.00 0.00 89 1014.5
20260831104005 11 0 0.0 0.0 0.00 0.00 0.00 89 1014.6
20260831103504 11 0 0.0 0.0 0.00 0.00 0.00 89 1014.6
20260831103005 11 0 0.0 0.0 0.00 0.00 0.00 89 1014.6
20260831102504 11 0 0.0 0.0 0.00 0.00 0.00 89 1014.7
20260831102004 11 0 0.0 0.0 0.00 0.00 0.00 89 1014.7
20260831101503 11 0 0.0 0.0 0.00 0.00 0.00 89 1014.7
20260831101004 11 0 0.0 0.0 0.00 0.00 0.00 88 1014.7
20260831100504 11 0 0.0 0.0 0.00 0.00 0.00 88 1014.8
20260831100004 11 0 0.0 0.0 0.00 0.00 0.00 88 1014.8
20260831095503 11 0 0.0 0.0 0.00 0.00 0.00 88 1014.9
20260831095004 11 0 0.0 0.0 0.00 0.00 0.00 88 1014.9
20260831094503 11 0 0.0 0.0 0.00 0.00 0.00 87 1014.9
20260831094005 11 0 0.0 0.0 0.00 0.00 0.00 87 1015.0
20260831093503 11 0 0.0 0.0 0.00 0.00 0.00 87 1015.1
20260831093005 11 0 0.0 0.0 0.00 0.00 0.00 87 1015.1
20260831092504 11 0 0.0 0.0 0.00 0.00 0.00 87 1015.2
20260831092005 11 0 0.0 0.0 0.00 0.00 0.00 87 1015.3
20260831091504 11 0 0.0 0.0 0.00 0.00 0.00 87 1015.3
20260831091004 11 0 0.0 0.0 0.00 0.00 0.00 87 1015.3
20260831090004 11 0 0.0 0.0 0.00 0.00 0.00 86 1015.4
20260831085504 11 0 0.0 0.0 0.00 0.00 0.00 86 1015.5
20260831085004 11 0 0.0 0.0 0.00 0.00 0.00 86 1015.5
20260831084503 12 0 0.0 0.0 0.00 0.00 0.00 86 1015.5
20260831084004 12 0 0.0 0.0 0.00 0.00 0.00 86 1015.4
20260831083004 12 0 0.0 0.0 0.00 0.00 0.00 85 1015.6
20260831082504 12 0 0.0 0.0 0.00 0.00 0.00 85 1015.5
20260831082004 12 0 0.0 0.0 0.00 0.00 0.00 85 1015.5
20260831081503 12 0 0.0 0.0 0.00 0.00 0.00 85 1015.6
20260831081003 12 0 0.0 0.0 0.00 0.00 0.00 85 1015.6
20260831080504 12 0 0.0 0.0 0.00 0.00 0.00 84 1015.6
20260831080004 12 0 0.0 0.0 0.00 0.00 0.00 84 1015.7
20260831075503 12 0 0.0 0.0 0.00 0.00 0.00 84 1015.8
20260831075004 12 0 0.0 0.0 0.00 0.00 0.00 83 1015.8
20260831074004 12 0 0.0 0.0 0.00 0.00 0.00 83 1015.9
20260831073503 12 0 0.0 0.0 0.00 0.00 0.00 82 1015.9
20260831073005 12 0 0.0 0.0 0.00 0.00 0.00 81 1015.9
20260831072503 13 0 0.0 0.0 0.00 0.00 0.00 81 1015.9
20260831071503 13 0 0.0 0.0 0.00 0.00 0.00 81 1016.0
20260831071005 13 0 0.0 0.0 0.00 0.00 0.00 80 1016.1
20260831070503 13 0 0.0 0.0 0.00 0.00 0.00 80 1016.1
20260831065504 13 0 0.0 0.0 0.00 0.00 0.00 79 1016.2
20260831065005 13 0 0.0 0.0 0.00 0.00 0.00 79 1016.2
20260831064504 13 0 0.0 0.0 0.00 0.00 0.00 79 1016.2
20260831064005 13 0 0.0 0.0 0.00 0.00 0.00 78 1016.4
20260831063506 14 0 0.0 0.0 0.00 0.00 0.00 78 1016.4
20260831063006 14 0 0.0 0.0 0.00 0.00 0.00 76 1016.5
20260831062506 14 0 0.0 0.0 0.00 0.00 0.00 76 1016.6
20260831062005 14 0 0.0 0.0 0.00 0.00 0.00 76 1016.6
20260831061007 15 0 0.0 0.0 0.00 0.00 0.00 75 1016.6
20260831060505 15 0 0.0 0.0 0.00 0.00 0.00 74 1016.6
20260831055505 15 0 0.0 0.0 0.00 0.00 0.00 74 1016.6
20260831055007 15 0 0.0 0.0 0.00 0.00 0.00 73 1016.7
20260831054506 15 0 0.0 0.0 0.00 0.00 0.00 73 1016.8
20260831054006 15 0 0.0 0.0 0.00 0.00 0.00 73 1016.8
20260831053505 15 0 0.0 0.0 0.00 0.00 0.00 73 1017.0
20260831053006 15 0 0.0 0.0 0.00 0.00 0.00 73 1017.0
20260831052505 15 0 0.0 0.0 0.00 0.00 0.00 72 1017.1
20260831052006 15 0 0.0 0.0 0.00 0.00 0.00 72 1017.1
20260831051006 16 0 0.0 0.0 0.00 0.00 0.00 71 1017.1
20260831045505 16 0 0.0 0.0 0.00 0.00 0.00 71 1017.2
20260831045006 16 0 0.0 0.0 0.00 0.00 0.00 71 1017.1
20260831044505 16 0 0.0 0.0 0.00 0.00 0.00 70 1017.2
20260831044007 16 0 0.0 0.0 0.00 0.00 0.00 70 1017.2
20260831043007 16 0 0.0 0.0 0.00 0.00 0.00 69 1017.3
20260831042505 17 0 0.0 0.0 0.00 0.00 0.00 68 1017.2
20260831042006 17 0 0.0 0.0 0.00 0.00 0.00 68 1017.2
20260831041006 17 0 0.0 0.0 0.00 0.00 0.00 67 1017.3
20260831040505 17 0 0.0 0.0 0.00 0.00 0.00 66 1017.3
20260831035504 17 0 0.0 0.0 0.00 0.00 0.00 66 1017.2
20260831035005 17 0 0.0 0.0 0.00 0.00 0.00 65 1017.2
20260831034505 17 0 0.0 0.0 0.00 0.00 0.00 65 1017.2
20260831034006 17 0 0.0 0.0 0.00 0.00 0.00 64 1017.2
20260831033505 18 0 0.0 0.0 0.00 0.00 0.00 64 1017.2
20260831033006 18 0 0.0 0.0 0.00 0.00 0.00 63 1017.1
20260831032505 18 0 0.0 0.0 0.00 0.00 0.00 63 1017.1
20260831032006 18 0 0.0 0.0 0.00 0.00 0.00 62 1017.1
20260831031505 18 0 0.0 0.0 0.00 0.00 0.00 62 1017.1
20260831031006 18 0 0.0 0.0 0.00 0.00 0.00 62 1017.1